Moncks Corner, SC

7:34 PM EST on February 26, 2017 (GMT -0500)
Moncks Corner

Weather History for KMKS - December, 2012

Change the Weather History Date:

Sunday, December 9, 2012

  Actual Average (KCHS) Record (KCHS)
Temperature  
Mean Temperature 64 °F -  
Max Temperature 77 °F 63 °F 81 °F (1943)
Min Temperature 50 °F 41 °F 19 °F (2006)
Degree Days  
Heating Degree Days 2    
Growing Degree Days 14 (Base 50)    
Moisture  
Dew Point 58 °F    
Average Humidity 88    
Maximum Humidity 100    
Minimum Humidity 61    
Precipitation  
Precipitation 0.10 in - - ()
Sea Level Pressure  
Sea Level Pressure 30.07 in    
Wind  
Wind Speed 0 mph (SSE)    
Max Wind Speed 6 mph    
Max Gust Speed -    
Visibility 4 miles    
Events Fog , Rain    
Averages and records for this station are not official NWS values.
T = Trace of Precipitation, MM = Missing Value Source: NWS Daily Summary

Daily Weather History Graph

Daily Weather History Graph

Search for Another Location

Airport or City:

Trip Planner

Search our weather history database for the weather conditions in past years. The results will help you decide how hot, cold, wet, or windy it might be!

Date:

Astronomy

Dec. 09, 2012 Rise Set
Actual Time 7:12 AM EST 5:13 PM EST
Civil Twilight 6:44 AM EST 5:40 PM EST
Nautical Twilight 6:14 AM EST 6:11 PM EST
Astronomical Twilight 5:44 AM EST 6:41 PM EST
Moon 2:52 AM EST (12/9) 2:10 PM EST (12/9)
Length of Visible Light 10h 55m
Length of Day
10h 00m
Waning Crescent, 19% of the Moon is Illuminated
Dec 9
Waning Crescent
Dec 13
New
Dec 20
First Quarter
Dec 28
Full
Jan 4
Last Quarter

Hourly Weather History & Observations

Time (EST) Temp. Dew Point Humidity Pressure Visibility Wind Dir Wind Speed Gust Speed Precip Events Conditions
12:15 AM 55.4 °F 53.6 °F 94% 30.08 in 5.0 mi Calm Calm - N/A   Mist
12:35 AM 55.4 °F 53.6 °F 94% 30.08 in 4.0 mi Calm Calm - N/A   Mist
12:55 AM 53.6 °F 51.8 °F 94% 30.08 in 1.5 mi Calm Calm - N/A   Mist
1:15 AM 53.6 °F 51.8 °F 94% 30.08 in 1.8 mi Calm Calm - N/A   Mist
1:35 AM 53.6 °F 51.8 °F 94% 30.08 in 1.8 mi Calm Calm - N/A   Mist
1:55 AM 51.8 °F 50.0 °F 94% 30.09 in 0.8 mi Calm Calm - N/A   Mist
2:15 AM 51.8 °F 50.0 °F 94% 30.09 in 0.5 mi Calm Calm - N/A Fog Fog
2:35 AM 51.8 °F 50.0 °F 94% 30.08 in 4.0 mi Calm Calm - N/A   Mist
2:55 AM 51.8 °F 50.0 °F 94% 30.09 in 0.8 mi Calm Calm - N/A   Mist
3:15 AM 51.8 °F 50.0 °F 94% 30.08 in 1.8 mi Calm Calm - N/A   Mist
3:35 AM 50.0 °F 50.0 °F 100% 30.09 in 3.0 mi Calm Calm - N/A   Mist
3:55 AM 51.8 °F 50.0 °F 94% 30.08 in 4.0 mi Calm Calm - N/A   Mist
4:15 AM 50.0 °F 48.2 °F 94% 30.08 in 3.0 mi Calm Calm - N/A   Mist
4:35 AM 50.0 °F 48.2 °F 94% 30.08 in 1.8 mi Calm Calm - N/A   Mist
4:55 AM 50.0 °F 48.2 °F 94% 30.08 in 2.5 mi Calm Calm - N/A   Mist
5:15 AM 50.0 °F 48.2 °F 94% 30.09 in 7.0 mi Calm Calm - N/A   Unknown
5:35 AM 50.0 °F 48.2 °F 94% 30.10 in 3.0 mi Calm Calm - N/A   Mist
5:55 AM 51.8 °F 50.0 °F 94% 30.10 in 7.0 mi Calm Calm - N/A   Unknown
6:15 AM 51.8 °F 50.0 °F 94% 30.10 in 5.0 mi Calm Calm - N/A   Mist
6:35 AM 51.8 °F 50.0 °F 94% 30.11 in 5.0 mi Calm Calm - N/A   Mist
6:55 AM 53.6 °F 51.8 °F 94% 30.11 in 7.0 mi Calm Calm - N/A   Unknown
7:15 AM 51.8 °F 50.0 °F 94% 30.11 in 5.0 mi Calm Calm - N/A   Mist
7:35 AM 51.8 °F 50.0 °F 94% 30.11 in 4.0 mi Calm Calm - N/A   Mist
7:55 AM 53.6 °F 51.8 °F 94% 30.12 in 0.2 mi Calm Calm - N/A Fog Fog
8:15 AM 55.4 °F 53.6 °F 94% 30.13 in 0.2 mi Calm Calm - N/A Fog Fog
8:35 AM 57.2 °F 55.4 °F 94% 30.13 in 0.2 mi Calm Calm - N/A Fog Fog
8:55 AM 59.0 °F 57.2 °F 94% 30.14 in 0.2 mi Calm Calm - N/A Fog Fog
9:15 AM 59.0 °F 57.2 °F 94% 30.14 in 0.2 mi Calm Calm - N/A Fog Fog
9:35 AM 60.8 °F 59.0 °F 94% 30.15 in 0.2 mi Calm Calm - N/A Fog Fog
9:55 AM 60.8 °F 59.0 °F 94% 30.15 in 3.0 mi Calm Calm - N/A   Mist
10:35 AM 68.0 °F 62.6 °F 83% 30.14 in 7.0 mi Calm Calm - N/A   Unknown
10:55 AM 69.8 °F 62.6 °F 78% 30.13 in 7.0 mi Calm Calm - N/A   Unknown
11:15 AM 73.4 °F 64.4 °F 73% 30.13 in 10.0 mi South 3.5 mph - N/A   Unknown
11:35 AM 73.4 °F 64.4 °F 73% 30.11 in 7.0 mi Calm Calm - N/A   Unknown
11:55 AM 75.2 °F 64.4 °F 69% 30.10 in 10.0 mi South 5.8 mph - N/A   Unknown
12:15 PM 77.0 °F 64.4 °F 65% 30.09 in 7.0 mi SE 4.6 mph - N/A   Unknown
12:35 PM 75.2 °F 64.4 °F 69% 30.08 in 10.0 mi South 4.6 mph - N/A   Unknown
12:55 PM 75.2 °F 64.4 °F 69% 30.07 in 7.0 mi South 4.6 mph - N/A   Unknown
1:15 PM 77.0 °F 62.6 °F 61% 30.06 in 7.0 mi Calm Calm - N/A   Unknown
1:35 PM 77.0 °F 64.4 °F 65% 30.05 in 7.0 mi SSE 3.5 mph - N/A   Unknown
1:55 PM 77.0 °F 64.4 °F 65% 30.05 in 10.0 mi ESE 3.5 mph - N/A   Unknown
2:15 PM 77.0 °F 64.4 °F 65% 30.05 in 10.0 mi Calm Calm - N/A   Unknown
2:35 PM 77.0 °F 64.4 °F 65% 30.05 in 10.0 mi Calm Calm - N/A   Unknown
2:55 PM 75.2 °F 64.4 °F 69% 30.05 in 7.0 mi Calm Calm - N/A   Unknown
3:15 PM 73.4 °F 64.4 °F 73% 30.05 in 10.0 mi NNW 4.6 mph - N/A   Unknown
3:35 PM 71.6 °F 64.4 °F 78% 30.05 in 5.0 mi Calm Calm - N/A   Haze
3:55 PM 71.6 °F 64.4 °F 78% 30.05 in 10.0 mi Calm Calm - N/A Rain Light Rain
4:15 PM 69.8 °F 66.2 °F 88% 30.05 in 4.0 mi Calm Calm - 0.09 in Rain Light Rain
4:35 PM 69.8 °F 66.2 °F 88% 30.05 in 10.0 mi Calm Calm - 0.10 in Rain Light Rain
4:55 PM 68.0 °F 66.2 °F 94% 30.05 in 3.0 mi Calm Calm - 0.10 in   Mist
5:15 PM 68.0 °F 66.2 °F 94% 30.05 in 1.0 mi Calm Calm - N/A   Mist
5:35 PM 68.0 °F 66.2 °F 94% 30.05 in 0.2 mi Calm Calm - N/A Fog Fog
5:55 PM 66.2 °F 64.4 °F 94% 30.05 in 0.2 mi Calm Calm - N/A Fog Fog
6:15 PM 66.2 °F 64.4 °F 94% 30.05 in 0.2 mi Calm Calm - N/A Fog Fog
6:35 PM 64.4 °F 62.6 °F 94% 30.05 in 0.2 mi Calm Calm - N/A Fog Fog
6:55 PM 64.4 °F 62.6 °F 94% 30.05 in 0.2 mi Calm Calm - N/A Fog Fog
7:15 PM 64.4 °F 62.6 °F 94% 30.05 in 0.5 mi Calm Calm - N/A Fog Fog
7:35 PM 64.4 °F 62.6 °F 94% 30.04 in 0.5 mi Calm Calm - N/A Fog Fog
7:55 PM 62.6 °F 60.8 °F 94% 30.04 in 0.5 mi Calm Calm - N/A Fog Fog
8:15 PM 64.4 °F 62.6 °F 94% 30.03 in 0.5 mi Calm Calm - N/A Fog Fog
8:35 PM 62.6 °F 60.8 °F 94% 30.04 in 0.5 mi Calm Calm - N/A Fog Fog
8:55 PM 62.6 °F 60.8 °F 94% 30.04 in 5.0 mi Calm Calm - N/A   Mist
9:15 PM 64.4 °F 62.6 °F 94% 30.03 in 7.0 mi Calm Calm - N/A   Unknown
9:35 PM 64.4 °F 62.6 °F 94% 30.03 in 3.0 mi Calm Calm - N/A   Mist
9:55 PM 64.4 °F 62.6 °F 94% 30.02 in 3.0 mi Calm Calm - N/A   Mist
10:15 PM 64.4 °F 62.6 °F 94% 30.02 in 0.5 mi Calm Calm - N/A Fog Fog
10:35 PM 62.6 °F 60.8 °F 94% 30.01 in 0.5 mi Calm Calm - N/A Fog Fog
10:55 PM 62.6 °F 60.8 °F 94% 30.01 in 1.0 mi Calm Calm - N/A   Mist
11:15 PM 62.6 °F 60.8 °F 94% 30.00 in 2.5 mi Calm Calm - N/A   Mist
11:35 PM 62.6 °F 60.8 °F 94% 30.00 in 0.2 mi Calm Calm - N/A Fog Fog
11:55 PM 62.6 °F 60.8 °F 94% 29.99 in 0.8 mi Calm Calm - N/A   Mist